Miscellaneous Local Product
Issued by NWS Hastings, NE

Home | Current Version | Previous Version | Graphics & Text | Print | Product List | Glossary On
Versions: 1 2 3 4 5 6 7 8 9 10 11 12 13 14 15 16 17 18 19 20 21 22 23 24 25 26 27 28 29 30 31 32 33 34 35 36 37 38 39 40 41 42 43 44 45 46 47 48 49 50
000
AXUS43 KGID 300402
MISGRI

GID CWA HOURLY WEATHER ROUNDUP
NATIONAL WEATHER SERVICE HASTINGS NE
1100 PM CDT SAT AUG 29 2015

NOTE: "FAIR" INDICATES FEW OR NO CLOUDS BELOW 12,000 FEET WITH NO
SIGNIFICANT WEATHER AND/OR OBSTRUCTIONS TO VISIBILITY.

...SOUTH CENTRAL NEBRASKA...

CITY           SKY/WX    TMP DP  RH WIND       PRES   REMARKS
GRAND ISLAND   CLEAR     65  62  90 S6        30.07R
HASTINGS       CLEAR     66  62  87 S5        30.07R
KEARNEY        CLEAR     64  57  77 S8        30.06S
ORD            CLEAR     64  61  90 SE3       30.03S
YORK           MOCLDY    64  63  94 S8        30.07R
AURORA         CLEAR     64  64 100 S6        30.07R
LEXINGTON      CLEAR     67  62  82 SE5       30.06F
HOLDREGE       CLEAR     64  59  85 S7        30.07S
HEBRON         CLEAR     62  59  90 SE3       30.06F

...NEBRASKA PANHANDLE...

CITY           SKY/WX    TMP DP  RH WIND       PRES   REMARKS
CHADRON        PTCLDY    81  40  23 S18       29.96S HAZE
ALLIANCE       CLEAR     68  45  43 S12       30.04F
SCOTTSBLUFF    CLEAR     65  49  56 E9        30.04S
SIDNEY         CLEAR     67  43  41 S9        30.11S

...WESTERN AND NORTH CENTRAL NEBRASKA...

CITY           SKY/WX    TMP DP  RH WIND       PRES   REMARKS
VALENTINE      CLEAR     76  58  53 S18       29.98F
AINSWORTH      CLEAR     71  61  69 S13       30.01F
ONEILL         PTCLDY    69  66  92 S8        30.02F
BROKEN BOW     CLEAR     69  64  84 S5        30.05F
IMPERIAL       CLEAR     67  51  56 SE12      30.08S
NORTH PLATTE   CLEAR     63  60  90 SE6       30.05F
MCCOOK         CLEAR     71  55  56 S7        30.07S

...EASTERN NEBRASKA...

CITY           SKY/WX    TMP DP  RH WIND       PRES   REMARKS
NORFOLK        CLEAR     64  63  96 SE8       30.04S
TEKAMAH        CLOUDY    61  61 100 S3        30.05S
COLUMBUS       CLEAR    N/A N/A N/A SE5       30.05S
ALBION         CLEAR     63  61  92 SE6       30.05S
OMAHA EPPLEY   CLOUDY    68  64  87 SE7       30.05F
OFFUTT AFB     CLOUDY    66  64  93 SE2       30.05S
MILLARD        CLOUDY    66  63  89 CALM      30.06S
LINCOLN        CLOUDY    64  61  90 S12       30.07R
NEBRASKA CITY  MOCLDY    64  63  97 CALM      30.07S
BEATRICE       CLOUDY    63  61  91 SE7       30.06F
FALLS CITY     CLEAR     61  60  97 W3        30.05F

...NORTHERN KANSAS...

CITY           SKY/WX    TMP DP  RH WIND       PRES   REMARKS
GOODLAND       CLEAR     66  49  54 S10       30.13S
HILL CITY      CLEAR     64  55  72 E3        30.08R
NORTON         CLEAR     68  55  64 SE5       30.07S
PHILLIPSBURG   CLEAR     68  61  77 E5        30.07S
SMITH CENTER   CLEAR     64  61  88 SE7       30.08R
HAYS           CLEAR     64  54  68 SE9       30.08R
RUSSELL        CLEAR     64  62  93 SE9       30.06R
CONCORDIA      CLEAR     60  59  96 S5        30.07S
SALINA         CLEAR     68  62  81 E3        30.06S
TOPEKA         CLOUDY    68  65  90 N3        30.06R



USA.gov is the U.S. government's official web portal to all federal, state and local government web resources and services.